Location: Newark
(52.3500°N, 175.9667°E)
Time: 20:41:34
(UTC+00:00)

Transit 4A - Pass Details

Date: 23 April 2021
Orbit: 871 x 974 km, 66.8° (Epoch: 16 May)

Event Time Altitude Azimuth Distance (km) Brightness Sun altitude
Rises 18:50:15 0° 320° (NW) 3,533 10.6 15.6°
Reaches altitude 10° 18:52:48 10° 322° (NW) 2,575 9.9 15.9°
Maximum altitude 18:58:45 78° 49° (NE) 906 8.4 16.9°
Drops below altitude 10° 19:04:35 10° 136° (SE) 2,519 11.0 17.8°
Sets 19:07:03 0° 138° (SE) 3,450 11.6 18.1°
